Time,TemperatureF,DewpointF,PressureIn,WindDirection,WindDirectionDegrees,WindSpeedMPH,WindSpeedGustMPH,Humidity,HourlyPrecipIn,Conditions,Clouds,dailyrainin,SoftwareType,DateUTC
2013-01-07 00:00:00,35.1,29.6,30.30,West,264,0.0,3.0,80,0.00,,,0.02,Wunderground v.1.15,2013-01-07 05:00:00,
2013-01-07 00:02:00,35.1,29.6,30.30,West,260,4.0,4.0,80,0.00,,,0.00,Wunderground v.1.15,2013-01-07 05:02:00,
2013-01-07 00:04:00,35.1,29.6,30.30,WNW,302,6.0,6.0,80,0.00,,,0.00,Wunderground v.1.15,2013-01-07 05:04:00,
2013-01-07 00:09:00,35.1,29.2,30.30,WSW,257,0.0,6.0,79,0.00,,,0.00,Wunderground v.1.15,2013-01-07 05:09:00,
2013-01-07 00:14:00,35.0,29.1,30.30,WSW,251,4.0,4.0,79,0.00,,,0.00,Wunderground v.1.15,2013-01-07 05:14:00,
2013-01-07 00:19:00,34.8,29.0,30.29,WNW,296,0.0,4.0,79,0.00,,,0.00,Wunderground v.1.15,2013-01-07 05:19:00,
2013-01-07 00:24:00,34.6,28.8,30.29,West,281,0.0,4.0,79,0.00,,,0.00,Wunderground v.1.15,2013-01-07 05:24:00,
2013-01-07 00:29:00,34.4,28.6,30.29,WSW,255,2.0,8.0,79,0.00,,,0.00,Wunderground v.1.15,2013-01-07 05:29:00,
2013-01-07 00:34:00,34.3,28.8,30.29,West,276,0.0,2.0,80,0.00,,,0.00,Wunderground v.1.15,2013-01-07 05:34:00,
2013-01-07 00:39:00,34.1,28.6,30.28,WNW,285,3.0,3.0,80,0.00,,,0.00,Wunderground v.1.15,2013-01-07 05:39:00,
2013-01-07 00:44:00,33.9,28.4,30.28,WSW,251,0.0,2.0,80,0.00,,,0.00,Wunderground v.1.15,2013-01-07 05:44:00,
2013-01-07 00:49:00,33.7,28.2,30.27,SW,221,3.0,3.0,80,0.00,,,0.00,Wunderground v.1.15,2013-01-07 05:49:00,
2013-01-07 00:55:00,33.4,28.2,30.27,SW,217,0.0,2.0,81,0.00,,,0.00,Wunderground v.1.15,2013-01-07 05:55:00,
2013-01-07 01:00:00,33.1,27.9,30.27,SW,217,2.0,2.0,81,0.00,,,0.00,Wunderground v.1.15,2013-01-07 06:00:00,
2013-01-07 01:05:00,32.9,27.7,30.27,SW,218,0.0,3.0,81,0.00,,,0.00,Wunderground v.1.15,2013-01-07 06:05:00,
2013-01-07 01:10:00,32.8,27.6,30.27,SW,225,0.0,1.0,81,0.00,,,0.00,Wunderground v.1.15,2013-01-07 06:10:00,
2013-01-07 01:15:00,32.7,27.8,30.27,SW,220,2.0,2.0,82,0.00,,,0.00,Wunderground v.1.15,2013-01-07 06:15:00,
2013-01-07 01:21:00,32.8,27.9,30.27,SSW,211,2.0,2.0,82,0.00,,,0.00,Wunderground v.1.15,2013-01-07 06:21:00,
2013-01-07 01:26:00,32.8,27.9,30.28,SSW,198,0.0,4.0,82,0.00,,,0.00,Wunderground v.1.15,2013-01-07 06:26:00,
2013-01-07 01:31:00,32.8,27.9,30.28,SW,218,1.0,1.0,82,0.00,,,0.00,Wunderground v.1.15,2013-01-07 06:31:00,
2013-01-07 01:36:00,32.7,27.8,30.28,SW,229,0.0,5.0,82,0.00,,,0.00,Wunderground v.1.15,2013-01-07 06:36:00,
2013-01-07 01:41:00,32.6,27.7,30.28,South,185,3.0,3.0,82,0.00,,,0.00,Wunderground v.1.15,2013-01-07 06:41:00,
2013-01-07 01:47:00,32.6,27.7,30.28,WSW,249,2.0,3.0,82,0.00,,,0.00,Wunderground v.1.15,2013-01-07 06:47:00,
2013-01-07 01:52:00,32.6,27.7,30.28,SW,219,3.0,4.0,82,0.00,,,0.00,Wunderground v.1.15,2013-01-07 06:52:00,
2013-01-07 01:57:00,32.6,27.7,30.28,SSW,203,1.0,4.0,82,0.00,,,0.00,Wunderground v.1.15,2013-01-07 06:57:00,
2013-01-07 02:02:00,32.5,27.6,30.28,SW,235,0.0,2.0,82,0.00,,,0.00,Wunderground v.1.15,2013-01-07 07:02:00,
2013-01-07 02:07:00,32.4,27.5,30.29,West,260,0.0,4.0,82,0.00,,,0.00,Wunderground v.1.15,2013-01-07 07:07:00,
2013-01-07 02:12:00,32.3,27.4,30.29,SW,228,0.0,4.0,82,0.00,,,0.00,Wunderground v.1.15,2013-01-07 07:12:00,
2013-01-07 02:17:00,32.3,27.4,30.29,SSW,213,0.0,4.0,82,0.00,,,0.00,Wunderground v.1.15,2013-01-07 07:17:00,
2013-01-07 02:22:00,32.3,27.4,30.29,West,268,0.0,5.0,82,0.00,,,0.00,Wunderground v.1.15,2013-01-07 07:22:00,
2013-01-07 02:27:00,32.3,27.4,30.29,SSW,205,1.0,5.0,82,0.00,,,0.00,Wunderground v.1.15,2013-01-07 07:27:00,
2013-01-07 02:32:00,32.2,27.3,30.29,SW,223,0.0,4.0,82,0.00,,,0.00,Wunderground v.1.15,2013-01-07 07:32:00,
2013-01-07 02:37:00,32.1,27.2,30.30,SSW,207,2.0,6.0,82,0.00,,,0.00,Wunderground v.1.15,2013-01-07 07:37:00,
2013-01-07 02:42:00,32.1,27.2,30.30,SSW,213,0.0,5.0,82,0.00,,,0.00,Wunderground v.1.15,2013-01-07 07:42:00,
2013-01-07 02:47:00,31.9,27.0,30.30,SW,220,0.0,5.0,82,0.00,,,0.00,Wunderground v.1.15,2013-01-07 07:47:00,
2013-01-07 02:52:00,31.8,26.9,30.31,SSW,211,3.0,3.0,82,0.00,,,0.00,Wunderground v.1.15,2013-01-07 07:52:00,
2013-01-07 02:57:00,31.6,27.0,30.31,SSW,205,4.0,4.0,83,0.00,,,0.00,Wunderground v.1.15,2013-01-07 07:57:00,
2013-01-07 03:02:00,31.5,26.9,30.30,SSW,206,1.0,7.0,83,0.00,,,0.00,Wunderground v.1.15,2013-01-07 08:02:00,
2013-01-07 03:07:00,31.4,26.8,30.31,SW,229,0.0,7.0,83,0.00,,,0.00,Wunderground v.1.15,2013-01-07 08:07:00,
2013-01-07 03:12:00,31.4,26.8,30.31,South,178,6.0,6.0,83,0.00,,,0.00,Wunderground v.1.15,2013-01-07 08:12:00,
2013-01-07 03:17:00,31.5,26.9,30.31,WSW,254,1.0,8.0,83,0.00,,,0.00,Wunderground v.1.15,2013-01-07 08:17:00,
2013-01-07 03:22:00,31.6,26.7,30.32,WNW,293,0.0,3.0,82,0.00,,,0.00,Wunderground v.1.15,2013-01-07 08:22:00,
2013-01-07 03:27:00,31.5,26.6,30.32,SSW,201,0.0,6.0,82,0.00,,,0.00,Wunderground v.1.15,2013-01-07 08:27:00,
2013-01-07 03:32:00,31.4,26.5,30.32,SW,227,0.0,5.0,82,0.00,,,0.00,Wunderground v.1.15,2013-01-07 08:32:00,
2013-01-07 03:37:00,31.4,26.5,30.32,SW,219,3.0,6.0,82,0.00,,,0.00,Wunderground v.1.15,2013-01-07 08:37:00,
2013-01-07 03:42:00,31.4,26.5,30.33,SW,224,0.0,3.0,82,0.00,,,0.00,Wunderground v.1.15,2013-01-07 08:42:00,
2013-01-07 03:47:00,31.4,26.5,30.33,SSW,205,2.0,7.0,82,0.00,,,0.00,Wunderground v.1.15,2013-01-07 08:47:00,
2013-01-07 03:52:00,31.3,26.4,30.33,SW,217,3.0,5.0,82,0.00,,,0.00,Wunderground v.1.15,2013-01-07 08:52:00,
2013-01-07 03:57:00,31.3,26.4,30.33,SSE,147,0.0,5.0,82,0.00,,,0.00,Wunderground v.1.15,2013-01-07 08:57:00,
2013-01-07 04:02:00,31.2,26.3,30.33,SSE,148,0.0,1.0,82,0.00,,,0.00,Wunderground v.1.15,2013-01-07 09:02:00,
2013-01-07 04:07:00,31.1,26.2,30.34,SSW,195,0.0,5.0,82,0.00,,,0.00,Wunderground v.1.15,2013-01-07 09:07:00,
2013-01-07 04:12:00,30.8,26.0,30.34,SSW,196,0.0,0.0,82,0.00,,,0.00,Wunderground v.1.15,2013-01-07 09:12:00,
2013-01-07 04:18:00,30.6,25.8,30.34,SSW,196,0.0,0.0,82,0.00,,,0.00,Wunderground v.1.15,2013-01-07 09:18:00,
2013-01-07 04:23:00,30.4,25.9,30.34,SSW,196,0.0,2.0,83,0.00,,,0.00,Wunderground v.1.15,2013-01-07 09:23:00,
2013-01-07 04:28:00,30.3,25.8,30.34,SSW,196,3.0,3.0,83,0.00,,,0.00,Wunderground v.1.15,2013-01-07 09:28:00,
2013-01-07 04:33:00,30.2,25.7,30.34,SSW,196,0.0,0.0,83,0.00,,,0.00,Wunderground v.1.15,2013-01-07 09:33:00,
2013-01-07 04:38:00,30.1,25.6,30.35,SSW,196,0.0,1.0,83,0.00,,,0.00,Wunderground v.1.15,2013-01-07 09:38:00,
2013-01-07 04:43:00,30.1,25.6,30.35,SSW,196,0.0,0.0,83,0.00,,,0.00,Wunderground v.1.15,2013-01-07 09:43:00,
2013-01-07 04:48:00,30.1,25.8,30.35,SSW,196,0.0,0.0,84,0.00,,,0.00,Wunderground v.1.15,2013-01-07 09:48:00,
2013-01-07 04:53:00,30.0,25.5,30.35,SSW,196,0.0,2.0,83,0.00,,,0.00,Wunderground v.1.15,2013-01-07 09:53:00,
2013-01-07 04:58:00,29.7,25.5,30.35,SSW,196,0.0,2.0,84,0.00,,,0.00,Wunderground v.1.15,2013-01-07 09:58:00,
2013-01-07 05:03:00,29.5,25.3,30.35,SSW,196,0.0,0.0,84,0.00,,,0.00,Wunderground v.1.15,2013-01-07 10:03:00,
2013-01-07 05:08:00,29.3,25.4,30.35,SSW,196,0.0,0.0,85,0.00,,,0.00,Wunderground v.1.15,2013-01-07 10:08:00,
2013-01-07 05:13:00,29.3,25.4,30.35,SSW,196,0.0,0.0,85,0.00,,,0.00,Wunderground v.1.15,2013-01-07 10:13:00,
2013-01-07 05:18:00,29.1,25.2,30.36,SSW,196,0.0,0.0,85,0.00,,,0.00,Wunderground v.1.15,2013-01-07 10:18:00,
2013-01-07 05:23:00,28.8,24.9,30.36,SSW,196,0.0,0.0,85,0.00,,,0.00,Wunderground v.1.15,2013-01-07 10:23:00,
2013-01-07 05:28:00,28.6,24.7,30.36,SSW,196,0.0,0.0,85,0.00,,,0.00,Wunderground v.1.15,2013-01-07 10:28:00,
2013-01-07 05:33:00,28.3,24.6,30.37,SSW,196,0.0,0.0,86,0.00,,,0.00,Wunderground v.1.15,2013-01-07 10:33:00,
2013-01-07 05:38:00,28.1,24.5,30.37,SSW,196,0.0,1.0,86,0.00,,,0.00,Wunderground v.1.15,2013-01-07 10:38:00,
2013-01-07 05:43:00,27.9,24.3,30.37,SSW,196,0.0,0.0,86,0.00,,,0.00,Wunderground v.1.15,2013-01-07 10:43:00,
2013-01-07 05:48:00,27.7,24.3,30.37,SSW,196,0.0,0.0,87,0.00,,,0.00,Wunderground v.1.15,2013-01-07 10:48:00,
2013-01-07 05:53:00,27.6,24.2,30.37,SSW,196,0.0,0.0,87,0.00,,,0.00,Wunderground v.1.15,2013-01-07 10:53:00,
2013-01-07 05:58:00,27.7,24.6,30.37,SSW,196,0.0,0.0,88,0.00,,,0.00,Wunderground v.1.15,2013-01-07 10:58:00,
2013-01-07 06:03:00,27.7,24.6,30.37,SSW,196,0.0,0.0,88,0.00,,,0.00,Wunderground v.1.15,2013-01-07 11:03:00,
2013-01-07 06:08:00,27.6,24.5,30.38,SSW,196,0.0,0.0,88,0.00,,,0.00,Wunderground v.1.15,2013-01-07 11:08:00,
2013-01-07 06:13:00,27.5,24.4,30.38,SSW,196,0.0,0.0,88,0.00,,,0.00,Wunderground v.1.15,2013-01-07 11:13:00,
2013-01-07 06:18:00,27.4,24.3,30.38,SSW,196,0.0,0.0,88,0.00,,,0.00,Wunderground v.1.15,2013-01-07 11:18:00,
2013-01-07 06:23:00,27.4,24.6,30.38,SSW,196,0.0,0.0,89,0.00,,,0.00,Wunderground v.1.15,2013-01-07 11:23:00,
2013-01-07 06:28:00,27.4,24.6,30.38,SSW,196,0.0,0.0,89,0.00,,,0.00,Wunderground v.1.15,2013-01-07 11:28:00,
2013-01-07 06:33:00,27.2,24.4,30.38,SSW,196,0.0,1.0,89,0.00,,,0.00,Wunderground v.1.15,2013-01-07 11:33:00,
2013-01-07 06:38:00,27.1,24.3,30.38,SSW,196,0.0,1.0,89,0.00,,,0.00,Wunderground v.1.15,2013-01-07 11:38:00,
2013-01-07 06:43:00,27.1,24.3,30.38,SSW,196,0.0,0.0,89,0.00,,,0.00,Wunderground v.1.15,2013-01-07 11:43:00,
2013-01-07 06:48:00,27.0,24.2,30.38,SSW,196,0.0,0.0,89,0.00,,,0.00,Wunderground v.1.15,2013-01-07 11:48:00,
2013-01-07 06:53:00,27.0,24.2,30.38,SSW,196,0.0,0.0,89,0.00,,,0.00,Wunderground v.1.15,2013-01-07 11:53:00,
2013-01-07 06:58:00,27.0,24.2,30.38,SSW,196,0.0,0.0,89,0.00,,,0.00,Wunderground v.1.15,2013-01-07 11:58:00,
2013-01-07 07:03:00,26.9,24.4,30.39,SSW,196,0.0,0.0,90,0.00,,,0.00,Wunderground v.1.15,2013-01-07 12:03:00,
2013-01-07 07:08:00,26.9,24.4,30.39,SSW,196,0.0,0.0,90,0.00,,,0.00,Wunderground v.1.15,2013-01-07 12:08:00,
2013-01-07 07:13:00,26.9,24.4,30.39,SSW,196,0.0,0.0,90,0.00,,,0.00,Wunderground v.1.15,2013-01-07 12:13:00,
2013-01-07 07:18:00,26.9,24.4,30.39,SSW,196,0.0,2.0,90,0.00,,,0.00,Wunderground v.1.15,2013-01-07 12:18:00,
2013-01-07 07:23:00,26.9,24.4,30.39,SSW,196,0.0,3.0,90,0.00,,,0.00,Wunderground v.1.15,2013-01-07 12:23:00,
2013-01-07 07:28:00,27.0,24.5,30.39,SSW,196,0.0,3.0,90,0.00,,,0.00,Wunderground v.1.15,2013-01-07 12:28:00,
2013-01-07 07:33:00,27.0,24.5,30.39,SSW,196,0.0,0.0,90,0.00,,,0.00,Wunderground v.1.15,2013-01-07 12:33:00,
2013-01-07 07:38:00,26.9,24.4,30.39,SSW,196,0.0,1.0,90,0.00,,,0.00,Wunderground v.1.15,2013-01-07 12:38:00,
2013-01-07 07:43:00,26.6,23.8,30.39,SSW,196,0.0,0.0,89,0.00,,,0.00,Wunderground v.1.15,2013-01-07 12:43:00,
2013-01-07 07:48:00,26.5,24.0,30.39,SSW,196,0.0,0.0,90,0.00,,,0.00,Wunderground v.1.15,2013-01-07 12:48:00,
2013-01-07 07:53:00,26.5,24.0,30.39,SSW,196,0.0,0.0,90,0.00,,,0.00,Wunderground v.1.15,2013-01-07 12:53:00,
2013-01-07 07:58:00,26.6,24.3,30.40,SSW,196,0.0,0.0,91,0.00,,,0.00,Wunderground v.1.15,2013-01-07 12:58:00,
2013-01-07 08:03:00,26.7,24.2,30.40,SSW,196,0.0,0.0,90,0.00,,,0.00,Wunderground v.1.15,2013-01-07 13:03:00,
2013-01-07 08:08:00,26.7,24.2,30.40,SSW,196,0.0,1.0,90,0.00,,,0.00,Wunderground v.1.15,2013-01-07 13:08:00,
2013-01-07 08:13:00,26.7,24.2,30.40,ESE,123,0.0,1.0,90,0.00,,,0.00,Wunderground v.1.15,2013-01-07 13:13:00,
2013-01-07 08:18:00,26.8,24.3,30.41,ESE,123,0.0,1.0,90,0.00,,,0.00,Wunderground v.1.15,2013-01-07 13:18:00,
2013-01-07 08:23:00,26.9,24.6,30.41,ESE,123,0.0,0.0,91,0.00,,,0.00,Wunderground v.1.15,2013-01-07 13:23:00,
2013-01-07 08:28:00,27.0,24.7,30.41,ESE,123,0.0,0.0,91,0.00,,,0.00,Wunderground v.1.15,2013-01-07 13:28:00,
2013-01-07 08:33:00,27.2,24.9,30.41,ESE,123,0.0,0.0,91,0.00,,,0.00,Wunderground v.1.15,2013-01-07 13:33:00,
2013-01-07 08:38:00,27.3,25.0,30.41,ESE,123,0.0,0.0,91,0.00,,,0.00,Wunderground v.1.15,2013-01-07 13:38:00,
2013-01-07 08:43:00,27.1,24.8,30.41,ESE,123,0.0,0.0,91,0.00,,,0.00,Wunderground v.1.15,2013-01-07 13:43:00,
2013-01-07 08:48:00,26.9,24.4,30.41,ESE,123,0.0,1.0,90,0.00,,,0.00,Wunderground v.1.15,2013-01-07 13:48:00,
2013-01-07 08:53:00,26.8,24.3,30.41,ESE,123,0.0,0.0,90,0.00,,,0.00,Wunderground v.1.15,2013-01-07 13:53:00,
2013-01-07 08:58:00,26.8,24.5,30.42,ESE,123,0.0,2.0,91,0.00,,,0.00,Wunderground v.1.15,2013-01-07 13:58:00,
2013-01-07 09:03:00,26.8,24.5,30.42,ESE,123,0.0,0.0,91,0.00,,,0.00,Wunderground v.1.15,2013-01-07 14:03:00,
2013-01-07 09:08:00,26.9,24.6,30.42,ESE,123,0.0,1.0,91,0.00,,,0.00,Wunderground v.1.15,2013-01-07 14:08:00,
2013-01-07 09:13:00,27.0,24.7,30.42,ESE,123,0.0,0.0,91,0.00,,,0.00,Wunderground v.1.15,2013-01-07 14:13:00,
2013-01-07 09:18:00,27.2,24.9,30.42,ESE,123,0.0,0.0,91,0.00,,,0.00,Wunderground v.1.15,2013-01-07 14:18:00,
2013-01-07 09:23:00,27.4,25.1,30.42,ESE,123,0.0,0.0,91,0.00,,,0.00,Wunderground v.1.15,2013-01-07 14:23:00,
2013-01-07 09:28:00,27.5,25.2,30.42,ESE,123,0.0,0.0,91,0.00,,,0.00,Wunderground v.1.15,2013-01-07 14:28:00,
2013-01-07 09:33:00,27.6,25.3,30.42,ESE,123,0.0,0.0,91,0.00,,,0.00,Wunderground v.1.15,2013-01-07 14:33:00,
2013-01-07 09:38:00,27.8,25.5,30.42,ESE,123,0.0,0.0,91,0.00,,,0.00,Wunderground v.1.15,2013-01-07 14:38:00,
2013-01-07 09:43:00,28.2,26.2,30.42,ESE,123,0.0,0.0,92,0.00,,,0.00,Wunderground v.1.15,2013-01-07 14:43:00,
2013-01-07 09:48:00,28.4,26.1,30.43,ESE,123,0.0,0.0,91,0.00,,,0.00,Wunderground v.1.15,2013-01-07 14:48:00,
2013-01-07 09:53:00,28.6,26.3,30.43,ESE,123,0.0,0.0,91,0.00,,,0.00,Wunderground v.1.15,2013-01-07 14:53:00,
2013-01-07 09:58:00,28.8,26.5,30.43,ESE,123,0.0,0.0,91,0.00,,,0.00,Wunderground v.1.15,2013-01-07 14:58:00,
2013-01-07 10:03:00,29.3,27.0,30.43,ESE,123,0.0,0.0,91,0.00,,,0.00,Wunderground v.1.15,2013-01-07 15:03:00,
2013-01-07 10:08:00,29.8,27.5,30.43,ESE,123,0.0,0.0,91,0.00,,,0.00,Wunderground v.1.15,2013-01-07 15:08:00,
2013-01-07 10:13:00,30.3,27.7,30.43,ESE,123,0.0,0.0,90,0.00,,,0.00,Wunderground v.1.15,2013-01-07 15:13:00,
2013-01-07 10:18:00,30.8,28.2,30.44,ESE,123,0.0,1.0,90,0.00,,,0.00,Wunderground v.1.15,2013-01-07 15:18:00,
2013-01-07 10:23:00,31.2,28.3,30.43,ESE,123,0.0,0.0,89,0.00,,,0.00,Wunderground v.1.15,2013-01-07 15:23:00,
2013-01-07 10:29:00,31.7,28.6,30.43,ESE,123,0.0,1.0,88,0.00,,,0.01,Wunderground v.1.15,2013-01-07 15:29:00,
2013-01-07 10:34:00,32.1,28.9,30.43,ESE,123,1.0,1.0,88,0.00,,,0.01,Wunderground v.1.15,2013-01-07 15:34:00,
2013-01-07 10:39:00,32.3,28.9,30.43,SSE,152,0.0,2.0,87,0.00,,,0.01,Wunderground v.1.15,2013-01-07 15:39:00,
2013-01-07 10:44:00,32.7,29.0,30.43,South,182,0.0,4.0,86,0.00,,,0.01,Wunderground v.1.15,2013-01-07 15:44:00,
2013-01-07 10:49:00,32.9,28.9,30.43,South,182,0.0,4.0,85,0.00,,,0.01,Wunderground v.1.15,2013-01-07 15:49:00,
2013-01-07 10:54:00,33.3,29.3,30.43,South,182,0.0,1.0,85,0.00,,,0.01,Wunderground v.1.15,2013-01-07 15:54:00,
2013-01-07 10:59:00,33.7,29.4,30.43,South,185,0.0,3.0,84,0.00,,,0.01,Wunderground v.1.15,2013-01-07 15:59:00,
2013-01-07 11:04:00,34.2,29.6,30.43,South,185,0.0,1.0,83,0.00,,,0.01,Wunderground v.1.15,2013-01-07 16:04:00,
2013-01-07 11:09:00,34.4,29.5,30.42,South,185,0.0,2.0,82,0.00,,,0.01,Wunderground v.1.15,2013-01-07 16:09:00,
2013-01-07 11:14:00,35.0,29.8,30.42,South,185,0.0,0.0,81,0.00,,,0.01,Wunderground v.1.15,2013-01-07 16:14:00,
2013-01-07 11:19:00,35.5,30.2,30.42,South,185,0.0,1.0,81,0.00,,,0.01,Wunderground v.1.15,2013-01-07 16:19:00,
2013-01-07 11:24:00,36.1,30.2,30.42,South,185,0.0,1.0,79,0.00,,,0.01,Wunderground v.1.15,2013-01-07 16:24:00,
2013-01-07 11:29:00,36.7,30.5,30.42,South,185,0.0,1.0,78,0.00,,,0.01,Wunderground v.1.15,2013-01-07 16:29:00,
2013-01-07 11:34:00,37.2,30.7,30.42,South,186,0.0,1.0,77,0.00,,,0.01,Wunderground v.1.15,2013-01-07 16:34:00,
2013-01-07 11:39:00,37.7,30.8,30.41,South,190,0.0,3.0,76,0.00,,,0.01,Wunderground v.1.15,2013-01-07 16:39:00,
2013-01-07 11:44:00,38.1,31.2,30.41,South,191,0.0,1.0,76,0.00,,,0.01,Wunderground v.1.15,2013-01-07 16:44:00,
2013-01-07 11:49:00,38.6,31.4,30.41,South,191,0.0,2.0,75,0.00,,,0.01,Wunderground v.1.15,2013-01-07 16:49:00,
2013-01-07 11:54:00,38.9,31.3,30.41,South,191,0.0,1.0,74,0.00,,,0.01,Wunderground v.1.15,2013-01-07 16:54:00,
2013-01-07 11:59:00,39.4,31.8,30.40,WNW,284,3.0,4.0,74,0.00,,,0.01,Wunderground v.1.15,2013-01-07 16:59:00,
2013-01-07 12:04:00,40.0,32.0,30.40,WNW,283,0.0,1.0,73,0.00,,,0.01,Wunderground v.1.15,2013-01-07 17:04:00,
2013-01-07 12:09:00,40.8,32.1,30.40,WSW,254,0.0,4.0,71,0.00,,,0.01,Wunderground v.1.15,2013-01-07 17:09:00,
2013-01-07 12:14:00,41.7,32.6,30.39,WSW,254,0.0,3.0,70,0.00,,,0.01,Wunderground v.1.15,2013-01-07 17:14:00,
2013-01-07 12:19:00,42.5,32.7,30.39,WNW,292,2.0,3.0,68,0.00,,,0.01,Wunderground v.1.15,2013-01-07 17:19:00,
2013-01-07 12:24:00,43.3,33.1,30.39,NW,316,0.0,3.0,67,0.00,,,0.01,Wunderground v.1.15,2013-01-07 17:24:00,
2013-01-07 12:29:00,44.0,32.6,30.39,North,355,0.0,3.0,64,0.00,,,0.01,Wunderground v.1.15,2013-01-07 17:29:00,
2013-01-07 12:34:00,44.6,32.4,30.38,NNW,344,0.0,4.0,62,0.00,,,0.01,Wunderground v.1.15,2013-01-07 17:34:00,
2013-01-07 12:39:00,45.4,31.9,30.38,NNW,344,0.0,4.0,59,0.00,,,0.01,Wunderground v.1.15,2013-01-07 17:39:00,
2013-01-07 12:44:00,46.3,29.6,30.37,SSW,194,2.0,4.0,52,0.00,,,0.01,Wunderground v.1.15,2013-01-07 17:44:00,
2013-01-07 12:49:00,46.9,28.2,30.37,ENE,69,3.0,5.0,48,0.00,,,0.01,Wunderground v.1.15,2013-01-07 17:49:00,
2013-01-07 12:54:00,47.6,28.9,30.37,ESE,103,2.0,9.0,48,0.00,,,0.01,Wunderground v.1.15,2013-01-07 17:54:00,
2013-01-07 12:59:00,48.1,27.2,30.36,NNE,31,0.0,9.0,44,0.00,,,0.01,Wunderground v.1.15,2013-01-07 17:59:00,
2013-01-07 13:04:00,48.4,27.5,30.36,East,88,0.0,7.0,44,0.00,,,0.01,Wunderground v.1.15,2013-01-07 18:04:00,
2013-01-07 13:09:00,48.6,27.6,30.36,NE,53,3.0,9.0,44,0.00,,,0.01,Wunderground v.1.15,2013-01-07 18:09:00,
2013-01-07 13:14:00,48.7,27.2,30.36,ENE,66,2.0,8.0,43,0.00,,,0.01,Wunderground v.1.15,2013-01-07 18:14:00,
2013-01-07 13:19:00,48.9,27.4,30.36,ESE,109,0.0,8.0,43,0.00,,,0.01,Wunderground v.1.15,2013-01-07 18:19:00,
2013-01-07 13:24:00,49.2,27.1,30.36,East,89,4.0,12.0,42,0.00,,,0.01,Wunderground v.1.15,2013-01-07 18:24:00,
2013-01-07 13:29:00,49.2,27.1,30.35,ESE,116,2.0,12.0,42,0.00,,,0.01,Wunderground v.1.15,2013-01-07 18:29:00,
2013-01-07 13:34:00,49.2,27.1,30.35,NE,41,4.0,7.0,42,0.00,,,0.01,Wunderground v.1.15,2013-01-07 18:34:00,
2013-01-07 13:39:00,49.4,26.7,30.35,ENE,65,7.0,10.0,41,0.00,,,0.01,Wunderground v.1.15,2013-01-07 18:39:00,
2013-01-07 13:44:00,49.7,27.5,30.35,ENE,76,2.0,10.0,42,0.00,,,0.01,Wunderground v.1.15,2013-01-07 18:44:00,
2013-01-07 13:49:00,49.9,27.1,30.35,ESE,123,2.0,10.0,41,0.00,,,0.01,Wunderground v.1.15,2013-01-07 18:49:00,
2013-01-07 13:54:00,50.1,26.7,30.35,NE,47,6.0,10.0,40,0.00,,,0.01,Wunderground v.1.15,2013-01-07 18:54:00,
2013-01-07 13:59:00,50.2,26.8,30.35,SSE,161,6.0,10.0,40,0.00,,,0.01,Wunderground v.1.15,2013-01-07 18:59:00,
2013-01-07 14:04:00,50.4,27.0,30.35,South,178,1.0,10.0,40,0.00,,,0.01,Wunderground v.1.15,2013-01-07 19:04:00,
2013-01-07 14:09:00,50.6,26.5,30.35,ENE,72,5.0,10.0,39,0.00,,,0.01,Wunderground v.1.15,2013-01-07 19:09:00,
2013-01-07 14:14:00,50.7,26.6,30.35,ENE,68,5.0,8.0,39,0.00,,,0.01,Wunderground v.1.15,2013-01-07 19:14:00,
2013-01-07 14:19:00,50.7,26.6,30.35,East,79,1.0,8.0,39,0.00,,,0.01,Wunderground v.1.15,2013-01-07 19:19:00,
2013-01-07 14:24:00,50.9,26.8,30.35,NE,46,5.0,6.0,39,0.00,,,0.01,Wunderground v.1.15,2013-01-07 19:24:00,
2013-01-07 14:29:00,51.1,27.0,30.35,ESE,103,1.0,8.0,39,0.00,,,0.01,Wunderground v.1.15,2013-01-07 19:29:00,
2013-01-07 14:34:00,51.2,26.4,30.35,East,98,0.0,7.0,38,0.00,,,0.01,Wunderground v.1.15,2013-01-07 19:34:00,
2013-01-07 14:39:00,51.3,25.9,30.35,East,99,0.0,7.0,37,0.00,,,0.01,Wunderground v.1.15,2013-01-07 19:39:00,
2013-01-07 14:44:00,51.4,25.3,30.35,ESE,104,2.0,7.0,36,0.00,,,0.01,Wunderground v.1.15,2013-01-07 19:44:00,
2013-01-07 14:49:00,51.5,25.4,30.35,ESE,123,5.0,11.0,36,0.00,,,0.01,Wunderground v.1.15,2013-01-07 19:49:00,
2013-01-07 14:54:00,51.6,25.5,30.36,NNE,32,5.0,6.0,36,0.00,,,0.01,Wunderground v.1.15,2013-01-07 19:54:00,
2013-01-07 14:59:00,51.8,26.3,30.35,WSW,238,0.0,7.0,37,0.00,,,0.01,Wunderground v.1.15,2013-01-07 19:59:00,
2013-01-07 15:04:00,51.8,25.7,30.35,ENE,64,2.0,7.0,36,0.00,,,0.01,Wunderground v.1.15,2013-01-07 20:04:00,
2013-01-07 15:09:00,51.8,25.7,30.35,East,94,4.0,7.0,36,0.00,,,0.01,Wunderground v.1.15,2013-01-07 20:09:00,
2013-01-07 15:14:00,51.9,25.8,30.35,East,86,1.0,5.0,36,0.00,,,0.01,Wunderground v.1.15,2013-01-07 20:14:00,
2013-01-07 15:19:00,51.8,26.3,30.35,ESE,111,2.0,10.0,37,0.00,,,0.01,Wunderground v.1.15,2013-01-07 20:19:00,
2013-01-07 15:24:00,51.9,27.7,30.35,East,100,2.0,7.0,39,0.00,,,0.01,Wunderground v.1.15,2013-01-07 20:24:00,
2013-01-07 15:29:00,52.0,26.5,30.35,ENE,75,0.0,10.0,37,0.00,,,0.01,Wunderground v.1.15,2013-01-07 20:29:00,
2013-01-07 15:34:00,52.1,25.9,30.35,ENE,70,3.0,5.0,36,0.00,,,0.01,Wunderground v.1.15,2013-01-07 20:34:00,
2013-01-07 15:39:00,51.8,25.7,30.35,ESE,118,5.0,8.0,36,0.00,,,0.01,Wunderground v.1.15,2013-01-07 20:39:00,
2013-01-07 15:44:00,51.7,25.6,30.35,ESE,107,4.0,4.0,36,0.00,,,0.01,Wunderground v.1.15,2013-01-07 20:44:00,
2013-01-07 15:49:00,51.5,26.1,30.35,ESE,107,0.0,5.0,37,0.00,,,0.01,Wunderground v.1.15,2013-01-07 20:49:00,
2013-01-07 15:54:00,51.2,25.1,30.35,East,87,2.0,5.0,36,0.00,,,0.01,Wunderground v.1.15,2013-01-07 20:54:00,
2013-01-07 15:59:00,51.0,25.0,30.36,ESE,111,0.0,6.0,36,0.00,,,0.01,Wunderground v.1.15,2013-01-07 20:59:00,
2013-01-07 16:04:00,50.8,24.8,30.36,NE,41,0.0,5.0,36,0.00,,,0.01,Wunderground v.1.15,2013-01-07 21:04:00,
2013-01-07 16:09:00,50.5,25.2,30.36,East,82,2.0,5.0,37,0.00,,,0.01,Wunderground v.1.15,2013-01-07 21:09:00,
2013-01-07 16:14:00,50.3,25.0,30.36,NE,44,0.0,5.0,37,0.00,,,0.01,Wunderground v.1.15,2013-01-07 21:14:00,
2013-01-07 16:19:00,50.2,24.9,30.36,ENE,68,3.0,10.0,37,0.00,,,0.01,Wunderground v.1.15,2013-01-07 21:19:00,
2013-01-07 16:24:00,50.0,24.7,30.36,East,79,2.0,5.0,37,0.00,,,0.01,Wunderground v.1.15,2013-01-07 21:24:00,
2013-01-07 16:29:00,49.8,25.2,30.36,ENE,78,2.0,6.0,38,0.00,,,0.01,Wunderground v.1.15,2013-01-07 21:29:00,
2013-01-07 16:34:00,49.7,25.1,30.36,East,99,0.0,4.0,38,0.00,,,0.01,Wunderground v.1.15,2013-01-07 21:34:00,
2013-01-07 16:39:00,49.5,24.9,30.36,NE,48,0.0,4.0,38,0.00,,,0.01,Wunderground v.1.15,2013-01-07 21:39:00,
2013-01-07 16:44:00,49.2,25.3,30.37,SE,133,0.0,6.0,39,0.00,,,0.01,Wunderground v.1.15,2013-01-07 21:44:00,
2013-01-07 16:49:00,49.0,25.1,30.37,ENE,76,0.0,6.0,39,0.00,,,0.01,Wunderground v.1.15,2013-01-07 21:49:00,
2013-01-07 16:54:00,48.9,25.6,30.37,East,86,3.0,4.0,40,0.00,,,0.01,Wunderground v.1.15,2013-01-07 21:54:00,
2013-01-07 16:59:00,48.8,25.5,30.37,ENE,76,2.0,4.0,40,0.00,,,0.01,Wunderground v.1.15,2013-01-07 21:59:00,
2013-01-07 17:04:00,48.7,26.0,30.36,NE,42,1.0,5.0,41,0.00,,,0.01,Wunderground v.1.15,2013-01-07 22:04:00,
2013-01-07 17:09:00,48.5,25.8,30.36,ENE,63,1.0,5.0,41,0.00,,,0.01,Wunderground v.1.15,2013-01-07 22:09:00,
2013-01-07 17:14:00,48.2,25.6,30.36,ESE,115,6.0,7.0,41,0.00,,,0.01,Wunderground v.1.15,2013-01-07 22:14:00,
2013-01-07 17:19:00,47.9,25.3,30.36,ESE,108,1.0,7.0,41,0.00,,,0.01,Wunderground v.1.15,2013-01-07 22:19:00,
2013-01-07 17:24:00,47.8,25.2,30.36,NE,55,3.0,6.0,41,0.00,,,0.01,Wunderground v.1.15,2013-01-07 22:24:00,
2013-01-07 17:29:00,47.6,25.0,30.36,East,92,4.0,8.0,41,0.00,,,0.01,Wunderground v.1.15,2013-01-07 22:29:00,
2013-01-07 17:35:00,47.4,25.4,30.36,SE,128,1.0,6.0,42,0.00,,,0.01,Wunderground v.1.15,2013-01-07 22:35:00,
2013-01-07 17:40:00,47.0,25.1,30.37,East,87,0.0,6.0,42,0.00,,,0.01,Wunderground v.1.15,2013-01-07 22:40:00,
2013-01-07 17:45:00,46.7,25.9,30.37,East,80,0.0,2.0,44,0.00,,,0.01,Wunderground v.1.15,2013-01-07 22:45:00,
2013-01-07 17:50:00,46.2,24.9,30.37,East,80,0.0,2.0,43,0.00,,,0.01,Wunderground v.1.15,2013-01-07 22:50:00,
2013-01-07 17:55:00,45.7,25.5,30.37,ESE,122,1.0,2.0,45,0.00,,,0.01,Wunderground v.1.15,2013-01-07 22:55:00,
2013-01-07 18:00:00,45.2,25.1,30.37,WNW,286,0.0,3.0,45,0.00,,,0.01,Wunderground v.1.15,2013-01-07 23:00:00,
2013-01-07 18:05:00,45.0,25.4,30.38,SE,146,0.0,2.0,46,0.00,,,0.01,Wunderground v.1.15,2013-01-07 23:05:00,
2013-01-07 18:10:00,44.9,25.3,30.38,ESE,123,0.0,3.0,46,0.00,,,0.01,Wunderground v.1.15,2013-01-07 23:10:00,
2013-01-07 18:15:00,44.7,25.2,30.38,SE,132,0.0,2.0,46,0.00,,,0.01,Wunderground v.1.15,2013-01-07 23:15:00,
2013-01-07 18:20:00,44.5,25.5,30.38,SE,132,0.0,4.0,47,0.00,,,0.01,Wunderground v.1.15,2013-01-07 23:20:00,
2013-01-07 18:25:00,44.3,25.8,30.38,South,183,0.0,5.0,48,0.00,,,0.01,Wunderground v.1.15,2013-01-07 23:25:00,
2013-01-07 18:30:00,44.0,25.5,30.39,SSE,156,0.0,5.0,48,0.00,,,0.01,Wunderground v.1.15,2013-01-07 23:30:00,
2013-01-07 18:35:00,43.8,25.9,30.39,SSW,209,0.0,2.0,49,0.00,,,0.01,Wunderground v.1.15,2013-01-07 23:35:00,
2013-01-07 18:40:00,43.7,25.8,30.40,ESE,116,0.0,4.0,49,0.00,,,0.01,Wunderground v.1.15,2013-01-07 23:40:00,
2013-01-07 18:45:00,43.6,26.2,30.40,ESE,117,0.0,4.0,50,0.00,,,0.01,Wunderground v.1.15,2013-01-07 23:45:00,
2013-01-07 18:50:00,43.3,25.9,30.40,ESE,114,0.0,4.0,50,0.00,,,0.01,Wunderground v.1.15,2013-01-07 23:50:00,
2013-01-07 18:55:00,42.9,26.0,30.40,ESE,114,0.0,0.0,51,0.00,,,0.01,Wunderground v.1.15,2013-01-07 23:55:00,
2013-01-07 19:00:00,42.6,25.7,30.40,ESE,111,0.0,1.0,51,0.00,,,0.01,Wunderground v.1.15,2013-01-08 00:00:00,
2013-01-07 19:05:00,42.6,26.2,30.39,NE,52,0.0,4.0,52,0.00,,,0.01,Wunderground v.1.15,2013-01-08 00:05:00,
2013-01-07 19:10:00,42.5,26.1,30.39,SE,138,0.0,6.0,52,0.00,,,0.01,Wunderground v.1.15,2013-01-08 00:10:00,
2013-01-07 19:15:00,42.3,25.9,30.39,East,84,0.0,2.0,52,0.00,,,0.01,Wunderground v.1.15,2013-01-08 00:15:00,
2013-01-07 19:20:00,42.3,26.4,30.39,NE,39,0.0,3.0,53,0.00,,,0.01,Wunderground v.1.15,2013-01-08 00:20:00,
2013-01-07 19:25:00,42.2,26.3,30.39,NE,38,0.0,3.0,53,0.00,,,0.01,Wunderground v.1.15,2013-01-08 00:25:00,
2013-01-07 19:30:00,41.9,26.9,30.39,NE,38,0.0,3.0,55,0.00,,,0.01,Wunderground v.1.15,2013-01-08 00:30:00,
2013-01-07 19:35:00,41.4,26.4,30.39,East,87,0.0,1.0,55,0.00,,,0.01,Wunderground v.1.15,2013-01-08 00:35:00,
2013-01-07 19:40:00,40.9,26.4,30.39,ENE,78,0.0,2.0,56,0.00,,,0.01,Wunderground v.1.15,2013-01-08 00:40:00,
2013-01-07 19:45:00,40.6,26.1,30.39,ENE,78,0.0,1.0,56,0.00,,,0.01,Wunderground v.1.15,2013-01-08 00:45:00,
2013-01-07 19:50:00,40.2,26.2,30.39,ENE,78,0.0,2.0,57,0.00,,,0.01,Wunderground v.1.15,2013-01-08 00:50:00,
2013-01-07 19:55:00,39.9,26.3,30.39,ENE,78,0.0,0.0,58,0.00,,,0.01,Wunderground v.1.15,2013-01-08 00:55:00,
2013-01-07 20:00:00,39.6,26.4,30.39,ENE,78,0.0,1.0,59,0.00,,,0.01,Wunderground v.1.15,2013-01-08 01:00:00,
2013-01-07 20:05:00,39.2,26.1,30.39,ENE,78,0.0,0.0,59,0.00,,,0.01,Wunderground v.1.15,2013-01-08 01:05:00,
2013-01-07 20:10:00,38.9,26.2,30.40,ENE,78,0.0,0.0,60,0.00,,,0.01,Wunderground v.1.15,2013-01-08 01:10:00,
2013-01-07 20:15:00,38.7,26.0,30.40,ENE,78,0.0,0.0,60,0.00,,,0.01,Wunderground v.1.15,2013-01-08 01:15:00,
2013-01-07 20:20:00,38.4,26.1,30.40,ENE,78,0.0,0.0,61,0.00,,,0.01,Wunderground v.1.15,2013-01-08 01:20:00,
2013-01-07 20:25:00,38.2,25.9,30.40,ENE,78,0.0,1.0,61,0.00,,,0.01,Wunderground v.1.15,2013-01-08 01:25:00,
2013-01-07 20:30:00,38.0,26.1,30.40,ENE,78,0.0,2.0,62,0.00,,,0.01,Wunderground v.1.15,2013-01-08 01:30:00,
2013-01-07 20:35:00,38.0,26.1,30.40,NE,47,0.0,3.0,62,0.00,,,0.01,Wunderground v.1.15,2013-01-08 01:35:00,
2013-01-07 20:40:00,38.0,26.1,30.40,NE,47,3.0,3.0,62,0.00,,,0.01,Wunderground v.1.15,2013-01-08 01:40:00,
2013-01-07 20:45:00,38.2,26.3,30.39,NE,46,2.0,3.0,62,0.00,,,0.01,Wunderground v.1.15,2013-01-08 01:45:00,
2013-01-07 20:50:00,38.3,26.4,30.39,ENE,59,0.0,5.0,62,0.00,,,0.01,Wunderground v.1.15,2013-01-08 01:50:00,
2013-01-07 20:55:00,38.5,26.6,30.39,NE,55,0.0,5.0,62,0.00,,,0.01,Wunderground v.1.15,2013-01-08 01:55:00,
2013-01-07 21:00:00,38.6,26.7,30.39,NE,42,3.0,5.0,62,0.00,,,0.01,Wunderground v.1.15,2013-01-08 02:00:00,
2013-01-07 21:05:00,38.7,26.8,30.39,NNE,31,0.0,3.0,62,0.00,,,0.01,Wunderground v.1.15,2013-01-08 02:05:00,
2013-01-07 21:10:00,38.4,26.5,30.39,NNE,30,0.0,3.0,62,0.00,,,0.01,Wunderground v.1.15,2013-01-08 02:10:00,
2013-01-07 21:15:00,38.0,26.5,30.39,NNE,30,0.0,1.0,63,0.00,,,0.01,Wunderground v.1.15,2013-01-08 02:15:00,
2013-01-07 21:20:00,37.5,26.4,30.39,NNE,32,0.0,2.0,64,0.00,,,0.01,Wunderground v.1.15,2013-01-08 02:20:00,
2013-01-07 21:25:00,37.8,26.7,30.39,ENE,59,0.0,5.0,64,0.00,,,0.01,Wunderground v.1.15,2013-01-08 02:25:00,
2013-01-07 21:30:00,38.0,26.5,30.38,NE,56,0.0,5.0,63,0.00,,,0.01,Wunderground v.1.15,2013-01-08 02:30:00,
2013-01-07 21:35:00,38.2,26.7,30.38,ENE,62,0.0,4.0,63,0.00,,,0.01,Wunderground v.1.15,2013-01-08 02:35:00,
2013-01-07 21:40:00,38.3,26.8,30.39,ENE,77,0.0,4.0,63,0.00,,,0.01,Wunderground v.1.15,2013-01-08 02:40:00,
2013-01-07 21:45:00,38.3,26.8,30.39,East,84,2.0,3.0,63,0.00,,,0.01,Wunderground v.1.15,2013-01-08 02:45:00,
2013-01-07 21:50:00,38.4,26.9,30.39,East,90,1.0,1.0,63,0.00,,,0.01,Wunderground v.1.15,2013-01-08 02:50:00,
2013-01-07 21:55:00,38.4,26.9,30.39,ENE,73,1.0,6.0,63,0.00,,,0.01,Wunderground v.1.15,2013-01-08 02:55:00,
2013-01-07 22:00:00,38.2,26.7,30.39,ENE,61,6.0,6.0,63,0.00,,,0.01,Wunderground v.1.15,2013-01-08 03:00:00,
2013-01-07 22:05:00,38.0,26.9,30.39,NNE,21,2.0,6.0,64,0.00,,,0.01,Wunderground v.1.15,2013-01-08 03:05:00,
2013-01-07 22:10:00,37.8,27.1,30.39,NNE,32,3.0,3.0,65,0.00,,,0.01,Wunderground v.1.15,2013-01-08 03:10:00,
2013-01-07 22:15:00,37.7,27.0,30.39,NE,46,4.0,6.0,65,0.00,,,0.01,Wunderground v.1.15,2013-01-08 03:15:00,
2013-01-07 22:20:00,37.5,26.8,30.39,ENE,58,2.0,4.0,65,0.00,,,0.01,Wunderground v.1.15,2013-01-08 03:20:00,
2013-01-07 22:25:00,37.4,26.7,30.40,NNE,33,0.0,4.0,65,0.00,,,0.01,Wunderground v.1.15,2013-01-08 03:25:00,
2013-01-07 22:30:00,37.3,26.6,30.40,NNE,33,0.0,0.0,65,0.00,,,0.01,Wunderground v.1.15,2013-01-08 03:30:00,
2013-01-07 22:35:00,37.2,26.9,30.40,NE,40,0.0,4.0,66,0.00,,,0.01,Wunderground v.1.15,2013-01-08 03:35:00,
2013-01-07 22:40:00,37.2,26.9,30.40,NE,42,2.0,5.0,66,0.00,,,0.01,Wunderground v.1.15,2013-01-08 03:40:00,
2013-01-07 22:45:00,37.3,26.6,30.40,NE,48,5.0,5.0,65,0.00,,,0.01,Wunderground v.1.15,2013-01-08 03:45:00,
2013-01-07 22:50:00,37.3,26.6,30.40,ENE,61,0.0,1.0,65,0.00,,,0.01,Wunderground v.1.15,2013-01-08 03:50:00,
2013-01-07 22:55:00,37.3,26.6,30.40,ENE,67,0.0,6.0,65,0.00,,,0.01,Wunderground v.1.15,2013-01-08 03:55:00,
2013-01-07 23:00:00,37.5,26.8,30.40,NE,44,0.0,1.0,65,0.00,,,0.01,Wunderground v.1.15,2013-01-08 04:00:00,
2013-01-07 23:05:00,37.7,26.6,30.40,East,90,1.0,6.0,64,0.00,,,0.01,Wunderground v.1.15,2013-01-08 04:05:00,
2013-01-07 23:10:00,37.6,26.5,30.40,ENE,76,3.0,4.0,64,0.00,,,0.01,Wunderground v.1.15,2013-01-08 04:10:00,
2013-01-07 23:15:00,37.6,26.5,30.39,ENE,69,2.0,4.0,64,0.00,,,0.01,Wunderground v.1.15,2013-01-08 04:15:00,
2013-01-07 23:20:00,37.7,26.6,30.39,East,93,5.0,5.0,64,0.00,,,0.01,Wunderground v.1.15,2013-01-08 04:20:00,
2013-01-07 23:25:00,37.8,26.7,30.39,ENE,78,2.0,7.0,64,0.00,,,0.01,Wunderground v.1.15,2013-01-08 04:25:00,
2013-01-07 23:30:00,37.7,26.6,30.39,ENE,73,3.0,3.0,64,0.00,,,0.01,Wunderground v.1.15,2013-01-08 04:30:00,
2013-01-07 23:35:00,37.7,26.6,30.39,East,90,0.0,7.0,64,0.00,,,0.01,Wunderground v.1.15,2013-01-08 04:35:00,
2013-01-07 23:40:00,37.7,26.6,30.39,ENE,63,2.0,6.0,64,0.00,,,0.01,Wunderground v.1.15,2013-01-08 04:40:00,
2013-01-07 23:45:00,37.8,26.7,30.38,East,94,6.0,8.0,64,0.00,,,0.01,Wunderground v.1.15,2013-01-08 04:45:00,
2013-01-07 23:50:00,37.8,26.7,30.38,East,81,3.0,3.0,64,0.00,,,0.01,Wunderground v.1.15,2013-01-08 04:50:00,
2013-01-07 23:55:00,37.7,26.6,30.38,NE,56,2.0,11.0,64,0.00,,,0.01,Wunderground v.1.15,2013-01-08 04:55:00,